Location: S�deilles
(46.7500°N, 6.9329°E)
Time: 17:55:27
(UTC+00:00)

Cosmos 2360 Rocket - Pass Details

Date: 08 March 2021
Orbit: 833 x 846 km, 71.0° (Epoch: 20 April)

Event Time Altitude Azimuth Distance (km) Brightness Sun altitude
Rises 19:02:31 0° 238° (WSW) 3,384 6.1 -16.9°
Reaches altitude 10° 19:05:14 10° 249° (WSW) 2,456 5.5 -17.3°
Maximum altitude 19:10:10 30° 310° (NW) 1,459 4.1 -18.2°
Drops below altitude 10° 19:15:09 10° 11° (N) 2,475 4.7 -19.0°
Sets 19:17:55 0° 22° (NNE) 3,415 5.3 -19.5°
